Regional Weather Roundup
Issued by NWS

Home | Current Version | Previous Version | Graphics & Text | Print | Product List | Glossary On
Versions: 1 2 3 4 5 6 7 8 9 10 11 12 13 14 15 16 17 18 19 20 21 22 23 24 25 26 27 28 29 30 31 32 33 34 35 36 37 38 39 40 41 42 43 44 45 46 47 48 49 50
000
ASUS43 KOAX 030202
RWRNE

WEATHER ROUNDUP FOR NEBRASKA
NATIONAL WEATHER SERVICE OMAHA NE
900 PM CDT MON MAY 02 2016

NOTES: SATELLITE DATA IS BEING USED TO AUGMENT CLOUD COVER ABOVE
       12000 FEET.
       "FAIR" INDICATES FEW OR NO CLOUDS BELOW 12,000 FEET WITH NO
       SIGNIFICANT WEATHER AND/OR OBSTRUCTIONS TO VISIBILITY.

  * THESE STATIONS DO NOT REPORT WEATHER SUCH AS RAIN...SNOW OR FOG.

NEZ001>004-019>022-054>056-030300-
NEBRASKA PANHANDLE

CITY           SKY/WX    TMP DP  RH WIND       PRES   REMARKS
SCOTTSBLUFF    MOCLDY    57  31  37 NW17      30.02R
ALLIANCE       MOCLDY    49  39  68 NE7       30.02R
CHADRON        CLOUDY    53  39  59 SE6       30.01S
KIMBALL        PTCLDY    50  32  49 NW10      30.06S
SIDNEY         CLOUDY    53  33  46 CALM      30.04S
$$

NEZ057>060-069>072-079>082-030300-
SOUTHWEST NEBRASKA

CITY           SKY/WX    TMP DP  RH WIND       PRES   REMARKS
NORTH PLATTE   LGT RAIN  50  39  66 N6        30.04R
IMPERIAL         N/A     58  29  33 W15       30.04S
LEXINGTON      PTCLDY    51  40  66 SE7       30.03S
MCCOOK         CLOUDY    55  37  50 NW5       30.03S
$$

NEZ005>010-023>029-035>040-094-030300-
NORTH CENTRAL NEBRASKA

CITY           SKY/WX    TMP DP  RH WIND       PRES   REMARKS
VALENTINE      LGT RAIN  51  40  65 NW8       30.04R
AINSWORTH      CLOUDY    52  43  69 E5        30.01S
BROKEN BOW     PTCLDY    50  39  66 SE5       30.02S
ORD            PTCLDY    49  42  77 S3        30.01F
$$

NEZ041-046>049-061>064-073>077-083>087-030300-
SOUTH CENTRAL NEBRASKA

CITY           SKY/WX    TMP DP  RH WIND       PRES   REMARKS
GRAND ISLAND   PTCLDY    54  39  57 S6        30.04F
AURORA         PTCLDY    55  41  58 S3        30.04F
HASTINGS       CLOUDY    53  39  59 SE5       30.04F
HEBRON         CLOUDY    52  42  69 CALM      30.06S
HOLDREGE       CLOUDY    52  42  69 SE7       30.04R
KEARNEY *      CLOUDY    52  39  62 SE7       30.04S
YORK           MOCLDY    54  41  62 S6        30.05S
$$

NEZ011>018-030>034-042>045-030300-
NORTHEAST NEBRASKA

CITY           SKY/WX    TMP DP  RH WIND       PRES   REMARKS
NORFOLK        PTCLDY    51  42  71 S5        30.02S
ALBION         PTCLDY    50  43  75 CALM      30.03S
BLAIR          CLEAR     57  41  54 CALM      30.04S
COLUMBUS *     PTCLDY    54  37  54 S5        30.05R
FREMONT        PTCLDY    54  43  66 CALM      30.04F
TEKAMAH        PTCLDY    57  47  69 S6        30.03S
$$

NEZ050>053-065>068-078-088>093-030300-
SOUTHEAST NEBRASKA

CITY           SKY/WX    TMP DP  RH WIND       PRES   REMARKS
LINCOLN        CLEAR     59  39  47 CALM      30.06S
OMAHA EPPLEY   PTCLDY    55  42  61 CALM      30.04S
BEATRICE       CLEAR     56  39  51 CALM      30.05S
FALLS CITY     PTCLDY    53  43  68 S3        30.05S
NEBRASKA CITY  CLEAR     55  40  56 CALM      30.05S
$$

NEZ044-045-051>053-067-030300-
OMAHA AREA

CITY           SKY/WX    TMP DP  RH WIND       PRES   REMARKS
OMAHA EPPLEY   PTCLDY    55  42  61 CALM      30.04S
BLAIR          CLEAR     57  41  54 CALM      30.04S
FREMONT        PTCLDY    54  43  66 CALM      30.04F
OFFUTT AFB     CLEAR     53  49  84 N2        30.03F
WAHOO          FAIR      57  40  54 S3        30.04F
$$




USA.gov is the U.S. government's official web portal to all federal, state and local government web resources and services.